ONEWEB-0037 (45440 NORAD) Tracking and Keplerian Element Data

This shows tracking and keplerian element data for the satellite.

Feedback or suggestion? Click here.




ElementValue
Catalog45440
NameONEWEB-0037
Epoch Orbit3218
Epoch Day297.91667824
Epoch Year2020
RAAN71.5741
Inclination87.7927
Eccentricity0.0020938
Argument of Perigee238.3382
Mean Anonmoly275.7254
Mean Motion13.97168605
Decay Rate-0.00022531
L11 45440U 20020S 20297.91667824 -.00022531 00000-0 -16158-1 0 9991
L22 45440 87.7927 71.5741 0020938 238.3382 275.7254 13.97168605 32187

Live tracking and technical data element details for ONEWEB-0037 (NORAD 45440). ONEWEB-0037 can be tracked NOW for your location showing map with azimuth and elevation plus other details from your city location.

Track the satellite on the map from your city or location and see movement details for azimuth, elevation, latitude, longitude, range, height, and movement on the map or in text.







IsCatalogInMostPopularTable: catalog: 45440, numindb: 50
Update: records affected: 1



GetName: 45440 ONEWEB-0037

Hit Count: updated at: Sat, 24 Oct 2020 22:45:56 GMT